Time,TemperatureF,DewpointF,PressureIn,WindDirection,WindDirectionDegrees,WindSpeedMPH,WindSpeedGustMPH,Humidity,HourlyPrecipIn,Conditions,Clouds,dailyrainin,SoftwareType,DateUTC
2013-01-11 00:00:00,38.3,0.0,30.22,South,180,9.1,11.1,0,0.04,,---,0.00,VWS V14.00,2013-01-11 05:00:00,
2013-01-11 00:01:00,38.2,0.0,30.22,SSW,195,5.3,11.1,0,0.04,,---,0.00,VWS V14.00,2013-01-11 05:01:00,
2013-01-11 00:02:00,38.2,0.0,30.22,South,174,7.6,11.1,0,0.04,,---,0.00,VWS V14.00,2013-01-11 05:02:00,
2013-01-11 00:03:00,32.0,0.0,30.49,NW,308,0.0,8.9,0,0.00,,---,0.00,VWS V14.00,2013-01-11 05:03:00,
2013-01-11 00:04:00,38.2,0.0,30.22,SSW,201,6.3,11.1,0,0.04,,---,0.00,VWS V14.00,2013-01-11 05:04:00,
2013-01-11 00:05:00,38.2,0.0,30.21,South,170,7.5,9.9,0,0.04,,---,0.00,VWS V14.00,2013-01-11 05:05:00,
2013-01-11 00:06:00,38.2,0.0,30.22,South,187,5.9,9.9,0,0.04,,---,0.00,VWS V14.00,2013-01-11 05:06:00,
2013-01-11 00:07:00,38.4,0.0,30.22,South,188,6.8,9.9,0,0.04,,---,0.00,VWS V14.00,2013-01-11 05:07:00,
2013-01-11 00:08:00,31.9,0.0,30.49,NNW,336,0.0,5.8,0,0.00,,---,0.00,VWS V14.00,2013-01-11 05:08:00,
2013-01-11 00:09:00,38.3,0.0,30.22,South,173,0.0,9.9,0,0.04,,---,0.00,VWS V14.00,2013-01-11 05:09:00,
2013-01-11 00:13:00,31.5,0.0,30.49,West,271,4.2,8.0,0,0.00,,---,0.00,VWS V14.00,2013-01-11 05:13:00,
2013-01-11 00:18:00,31.2,0.0,30.49,NW,316,0.0,8.5,0,0.00,,---,0.00,VWS V14.00,2013-01-11 05:18:00,
2013-01-11 00:23:00,31.2,0.0,30.50,NW,318,3.4,5.2,0,0.00,,---,0.00,VWS V14.00,2013-01-11 05:23:00,
2013-01-11 00:28:00,31.3,0.0,30.49,West,276,0.0,5.9,0,0.00,,---,0.00,VWS V14.00,2013-01-11 05:28:00,
2013-01-11 00:33:00,31.3,0.0,30.49,West,276,0.0,0.0,0,0.00,,---,0.00,VWS V14.00,2013-01-11 05:33:00,
2013-01-11 00:38:00,31.2,0.0,30.49,West,276,0.0,0.0,0,0.00,,---,0.00,VWS V14.00,2013-01-11 05:38:00,
2013-01-11 00:43:00,31.3,0.0,30.49,West,276,0.0,0.0,0,0.00,,---,0.00,VWS V14.00,2013-01-11 05:43:00,
2013-01-11 00:48:00,31.2,0.0,30.49,West,276,0.0,0.0,0,0.00,,---,0.00,VWS V14.00,2013-01-11 05:48:00,
2013-01-11 00:53:00,31.2,0.0,30.49,West,276,0.0,0.0,0,0.00,,---,0.00,VWS V14.00,2013-01-11 05:53:00,
2013-01-11 00:58:00,31.4,0.0,30.49,West,276,0.0,0.0,0,0.00,,---,0.00,VWS V14.00,2013-01-11 05:58:00,
2013-01-11 01:03:00,31.4,0.0,30.49,West,276,0.0,1.8,0,0.00,,---,0.00,VWS V14.00,2013-01-11 06:03:00,
2013-01-11 01:08:00,31.1,0.0,30.49,NW,309,0.0,6.5,0,0.00,,---,0.00,VWS V14.00,2013-01-11 06:08:00,
2013-01-11 01:13:00,31.0,0.0,30.49,NW,311,0.0,6.1,0,0.00,,---,0.00,VWS V14.00,2013-01-11 06:13:00,
2013-01-11 01:18:00,30.7,0.0,30.49,NW,311,0.0,0.0,0,0.00,,---,0.00,VWS V14.00,2013-01-11 06:18:00,
2013-01-11 01:23:00,30.6,0.0,30.49,NW,311,0.0,0.0,0,0.00,,---,0.00,VWS V14.00,2013-01-11 06:23:00,
2013-01-11 01:28:00,30.7,0.0,30.49,NW,311,0.0,0.0,0,0.00,,---,0.00,VWS V14.00,2013-01-11 06:28:00,
2013-01-11 01:33:00,30.8,0.0,30.50,WNW,285,0.0,4.8,0,0.00,,---,0.00,VWS V14.00,2013-01-11 06:33:00,
2013-01-11 01:38:00,30.5,0.0,30.50,WNW,285,0.0,0.0,0,0.00,,---,0.00,VWS V14.00,2013-01-11 06:38:00,
2013-01-11 01:43:00,30.1,0.0,30.49,WNW,285,0.0,3.4,0,0.00,,---,0.00,VWS V14.00,2013-01-11 06:43:00,
2013-01-11 01:48:00,30.0,0.0,30.49,WNW,285,0.0,0.0,0,0.00,,---,0.00,VWS V14.00,2013-01-11 06:48:00,
2013-01-11 01:53:00,30.2,0.0,30.50,WNW,285,0.0,0.0,0,0.00,,---,0.00,VWS V14.00,2013-01-11 06:53:00,
2013-01-11 01:58:00,30.2,0.0,30.49,WNW,285,0.0,0.0,0,0.00,,---,0.00,VWS V14.00,2013-01-11 06:58:00,
2013-01-11 02:03:00,30.1,0.0,30.49,WNW,301,0.0,8.9,0,0.00,,---,0.00,VWS V14.00,2013-01-11 07:03:00,
2013-01-11 02:08:00,29.8,0.0,30.49,NNW,336,0.0,7.1,0,0.00,,---,0.00,VWS V14.00,2013-01-11 07:08:00,
2013-01-11 02:13:00,29.7,0.0,30.49,West,271,4.2,8.4,0,0.00,,---,0.00,VWS V14.00,2013-01-11 07:13:00,
2013-01-11 02:18:00,29.7,0.0,30.49,WNW,301,0.0,7.0,0,0.00,,---,0.00,VWS V14.00,2013-01-11 07:18:00,
2013-01-11 02:23:00,29.8,0.0,30.49,WNW,288,0.0,7.6,0,0.00,,---,0.00,VWS V14.00,2013-01-11 07:23:00,
2013-01-11 02:28:00,29.6,0.0,30.48,NW,322,0.0,7.5,0,0.00,,---,0.00,VWS V14.00,2013-01-11 07:28:00,
2013-01-11 02:33:00,29.3,0.0,30.48,NW,308,0.0,3.4,0,0.00,,---,0.00,VWS V14.00,2013-01-11 07:33:00,
2013-01-11 02:38:00,29.3,0.0,30.48,NW,308,0.0,3.3,0,0.00,,---,0.00,VWS V14.00,2013-01-11 07:38:00,
2013-01-11 02:43:00,29.3,0.0,30.48,NW,308,0.0,0.0,0,0.00,,---,0.00,VWS V14.00,2013-01-11 07:43:00,
2013-01-11 02:48:00,29.4,0.0,30.48,WNW,284,0.0,5.0,0,0.00,,---,0.00,VWS V14.00,2013-01-11 07:48:00,
2013-01-11 02:53:00,29.6,0.0,30.48,West,267,0.0,5.3,0,0.00,,---,0.00,VWS V14.00,2013-01-11 07:53:00,
2013-01-11 02:58:00,29.3,0.0,30.48,West,267,0.0,5.4,0,0.00,,---,0.00,VWS V14.00,2013-01-11 07:58:00,
2013-01-11 03:03:00,29.1,0.0,30.48,WNW,284,4.3,0.0,0,0.00,,---,0.00,VWS V14.00,2013-01-11 08:03:00,
2013-01-11 03:08:00,28.9,0.0,30.49,WNW,292,0.0,4.5,0,0.00,,---,0.00,VWS V14.00,2013-01-11 08:08:00,
2013-01-11 03:13:00,29.0,0.0,30.48,WNW,292,0.0,0.0,0,0.00,,---,0.00,VWS V14.00,2013-01-11 08:13:00,
2013-01-11 03:18:00,28.6,0.0,30.48,WNW,292,0.0,0.0,0,0.00,,---,0.00,VWS V14.00,2013-01-11 08:18:00,
2013-01-11 03:23:00,28.4,0.0,30.47,WNW,292,0.0,0.0,0,0.00,,---,0.00,VWS V14.00,2013-01-11 08:23:00,
2013-01-11 03:28:00,28.3,0.0,30.47,WNW,292,0.0,0.0,0,0.00,,---,0.00,VWS V14.00,2013-01-11 08:28:00,
2013-01-11 03:33:00,28.4,0.0,30.47,WNW,292,0.0,0.0,0,0.00,,---,0.00,VWS V14.00,2013-01-11 08:33:00,
2013-01-11 03:38:00,28.7,0.0,30.47,WNW,292,0.0,0.0,0,0.00,,---,0.00,VWS V14.00,2013-01-11 08:38:00,
2013-01-11 03:43:00,28.6,0.0,30.47,SW,229,0.0,6.8,0,0.00,,---,0.00,VWS V14.00,2013-01-11 08:43:00,
2013-01-11 03:48:00,28.4,0.0,30.47,SW,229,0.0,0.0,0,0.00,,---,0.00,VWS V14.00,2013-01-11 08:48:00,
2013-01-11 03:53:00,27.9,0.0,30.46,West,271,0.0,6.5,0,0.00,,---,0.00,VWS V14.00,2013-01-11 08:53:00,
2013-01-11 03:58:00,27.7,0.0,30.46,WSW,243,0.0,3.0,0,0.00,,---,0.00,VWS V14.00,2013-01-11 08:58:00,
2013-01-11 04:03:00,27.8,0.0,30.46,WSW,243,0.0,0.0,0,0.00,,---,0.00,VWS V14.00,2013-01-11 09:03:00,
2013-01-11 04:08:00,27.8,0.0,30.46,WSW,243,0.0,0.0,0,0.00,,---,0.00,VWS V14.00,2013-01-11 09:08:00,
2013-01-11 04:13:00,27.8,0.0,30.46,WSW,243,0.0,0.0,0,0.00,,---,0.00,VWS V14.00,2013-01-11 09:13:00,
2013-01-11 04:18:00,27.4,0.0,30.46,WNW,294,0.0,6.2,0,0.00,,---,0.00,VWS V14.00,2013-01-11 09:18:00,
2013-01-11 04:23:00,27.4,0.0,30.46,WNW,294,0.0,0.0,0,0.00,,---,0.00,VWS V14.00,2013-01-11 09:23:00,
2013-01-11 04:28:00,27.8,0.0,30.46,WNW,294,0.0,0.0,0,0.00,,---,0.00,VWS V14.00,2013-01-11 09:28:00,
2013-01-11 04:33:00,27.8,0.0,30.46,WNW,294,0.0,0.0,0,0.00,,---,0.00,VWS V14.00,2013-01-11 09:33:00,
2013-01-11 04:38:00,27.9,0.0,30.46,WNW,294,0.0,0.0,0,0.00,,---,0.00,VWS V14.00,2013-01-11 09:38:00,
2013-01-11 04:43:00,27.8,0.0,30.46,WNW,285,0.0,4.3,0,0.00,,---,0.00,VWS V14.00,2013-01-11 09:43:00,
2013-01-11 04:48:00,27.7,0.0,30.46,WNW,285,0.0,0.0,0,0.00,,---,0.00,VWS V14.00,2013-01-11 09:48:00,
2013-01-11 04:53:00,27.7,0.0,30.46,WNW,285,0.0,0.0,0,0.00,,---,0.00,VWS V14.00,2013-01-11 09:53:00,
2013-01-11 04:58:00,27.3,0.0,30.46,WNW,285,0.0,0.0,0,0.00,,---,0.00,VWS V14.00,2013-01-11 09:58:00,
2013-01-11 05:03:00,27.5,0.0,30.46,WNW,285,0.0,0.0,0,0.00,,---,0.00,VWS V14.00,2013-01-11 10:03:00,
2013-01-11 05:08:00,27.3,0.0,30.46,WNW,285,0.0,0.0,0,0.00,,---,0.00,VWS V14.00,2013-01-11 10:08:00,
2013-01-11 05:13:00,27.0,0.0,30.46,WNW,285,0.0,0.0,0,0.00,,---,0.00,VWS V14.00,2013-01-11 10:13:00,
2013-01-11 05:18:00,26.9,0.0,30.46,NNW,330,5.7,7.0,0,0.00,,---,0.00,VWS V14.00,2013-01-11 10:18:00,
2013-01-11 05:23:00,27.2,0.0,30.47,NW,315,2.6,6.1,0,0.00,,---,0.00,VWS V14.00,2013-01-11 10:23:00,
2013-01-11 05:28:00,27.4,0.0,30.46,NNW,333,0.0,4.6,0,0.00,,---,0.00,VWS V14.00,2013-01-11 10:28:00,
2013-01-11 05:33:00,27.4,0.0,30.46,NW,319,0.0,3.0,0,0.00,,---,0.00,VWS V14.00,2013-01-11 10:33:00,
2013-01-11 05:38:00,27.5,0.0,30.47,NW,308,0.0,3.0,0,0.00,,---,0.00,VWS V14.00,2013-01-11 10:38:00,
2013-01-11 05:43:00,27.6,0.0,30.47,NW,305,3.2,5.7,0,0.00,,---,0.00,VWS V14.00,2013-01-11 10:43:00,
2013-01-11 05:48:00,27.8,0.0,30.47,NW,309,0.0,6.1,0,0.00,,---,0.00,VWS V14.00,2013-01-11 10:48:00,
2013-01-11 05:53:00,27.8,0.0,30.48,NW,309,0.0,0.0,0,0.00,,---,0.00,VWS V14.00,2013-01-11 10:53:00,
2013-01-11 05:58:00,27.9,0.0,30.48,NW,314,0.0,5.4,0,0.00,,---,0.00,VWS V14.00,2013-01-11 10:58:00,
2013-01-11 06:03:00,27.8,0.0,30.48,WNW,284,0.0,5.8,0,0.00,,---,0.00,VWS V14.00,2013-01-11 11:03:00,
2013-01-11 06:08:00,27.6,0.0,30.48,West,276,0.0,7.4,0,0.00,,---,0.00,VWS V14.00,2013-01-11 11:08:00,
2013-01-11 06:13:00,27.2,0.0,30.48,West,276,0.0,0.0,0,0.00,,---,0.00,VWS V14.00,2013-01-11 11:13:00,
2013-01-11 06:18:00,26.7,0.0,30.48,NW,316,0.0,5.2,0,0.00,,---,0.00,VWS V14.00,2013-01-11 11:18:00,
2013-01-11 06:23:00,26.8,0.0,30.49,NNW,329,0.0,4.7,0,0.00,,---,0.00,VWS V14.00,2013-01-11 11:23:00,
2013-01-11 06:28:00,27.1,0.0,30.48,West,260,4.2,6.5,0,0.00,,---,0.00,VWS V14.00,2013-01-11 11:28:00,
2013-01-11 06:33:00,27.5,0.0,30.48,NW,308,5.3,7.0,0,0.00,,---,0.00,VWS V14.00,2013-01-11 11:33:00,
2013-01-11 06:38:00,27.5,0.0,30.48,West,274,0.0,7.0,0,0.00,,---,0.00,VWS V14.00,2013-01-11 11:38:00,
2013-01-11 06:43:00,27.5,0.0,30.49,West,274,0.0,0.0,0,0.00,,---,0.00,VWS V14.00,2013-01-11 11:43:00,
2013-01-11 06:48:00,27.6,0.0,30.48,West,274,0.0,0.0,0,0.00,,---,0.00,VWS V14.00,2013-01-11 11:48:00,
2013-01-11 06:53:00,27.4,0.0,30.48,NNW,343,0.0,5.7,0,0.00,,---,0.00,VWS V14.00,2013-01-11 11:53:00,
2013-01-11 06:58:00,27.1,0.0,30.48,NNW,343,0.0,0.0,0,0.00,,---,0.00,VWS V14.00,2013-01-11 11:58:00,
2013-01-11 07:03:00,27.0,0.0,30.48,NW,326,0.0,4.3,0,0.00,,---,0.00,VWS V14.00,2013-01-11 12:03:00,
2013-01-11 07:08:00,27.1,0.0,30.49,NW,326,0.0,0.0,0,0.00,,---,0.00,VWS V14.00,2013-01-11 12:08:00,
2013-01-11 07:13:00,27.2,0.0,30.49,NW,326,0.0,0.0,0,0.00,,---,0.00,VWS V14.00,2013-01-11 12:13:00,
2013-01-11 07:18:00,27.4,0.0,30.49,NW,319,0.0,3.1,0,0.00,,---,0.00,VWS V14.00,2013-01-11 12:18:00,
2013-01-11 07:23:00,27.9,0.0,30.49,NNW,340,0.0,5.3,0,0.00,,---,0.00,VWS V14.00,2013-01-11 12:23:00,
2013-01-11 07:28:00,28.2,0.0,30.49,NNW,340,0.0,0.0,0,0.00,,---,0.00,VWS V14.00,2013-01-11 12:28:00,
2013-01-11 07:33:00,28.0,0.0,30.49,North,352,0.0,2.6,0,0.00,,---,0.00,VWS V14.00,2013-01-11 12:33:00,
2013-01-11 07:38:00,28.0,0.0,30.50,NW,312,0.0,2.6,0,0.00,,---,0.00,VWS V14.00,2013-01-11 12:38:00,
2013-01-11 07:43:00,28.3,0.0,30.49,NW,312,0.0,0.0,0,0.00,,---,0.00,VWS V14.00,2013-01-11 12:43:00,
2013-01-11 07:48:00,28.1,0.0,30.49,NW,312,0.0,0.0,0,0.00,,---,0.00,VWS V14.00,2013-01-11 12:48:00,
2013-01-11 07:53:00,28.1,0.0,30.50,NW,312,0.0,0.0,0,0.00,,---,0.00,VWS V14.00,2013-01-11 12:53:00,
2013-01-11 07:58:00,28.4,0.0,30.50,NW,312,0.0,0.0,0,0.00,,---,0.00,VWS V14.00,2013-01-11 12:58:00,
2013-01-11 08:03:00,28.7,0.0,30.49,NW,312,0.0,0.0,0,0.00,,---,0.00,VWS V14.00,2013-01-11 13:03:00,
2013-01-11 08:08:00,28.9,0.0,30.50,NW,312,0.0,0.0,0,0.00,,---,0.00,VWS V14.00,2013-01-11 13:08:00,
2013-01-11 08:13:00,29.3,0.0,30.50,NW,312,0.0,0.0,0,0.00,,---,0.00,VWS V14.00,2013-01-11 13:13:00,
2013-01-11 08:18:00,29.4,0.0,30.49,NW,312,0.0,0.0,0,0.00,,---,0.00,VWS V14.00,2013-01-11 13:18:00,
2013-01-11 08:23:00,29.7,0.0,30.50,NW,312,0.0,0.0,0,0.00,,---,0.00,VWS V14.00,2013-01-11 13:23:00,
2013-01-11 08:28:00,30.0,0.0,30.50,NW,312,0.0,0.0,0,0.00,,---,0.00,VWS V14.00,2013-01-11 13:28:00,
2013-01-11 08:33:00,30.2,0.0,30.49,NW,312,0.0,0.0,0,0.00,,---,0.00,VWS V14.00,2013-01-11 13:33:00,
2013-01-11 08:38:00,30.3,0.0,30.50,NW,312,0.0,0.0,0,0.00,,---,0.00,VWS V14.00,2013-01-11 13:38:00,
2013-01-11 08:43:00,30.3,0.0,30.50,NW,312,0.0,0.0,0,0.00,,---,0.00,VWS V14.00,2013-01-11 13:43:00,
2013-01-11 08:48:00,30.5,0.0,30.49,NW,312,0.0,0.0,0,0.00,,---,0.00,VWS V14.00,2013-01-11 13:48:00,
2013-01-11 08:53:00,30.6,0.0,30.49,NW,312,0.0,0.0,0,0.00,,---,0.00,VWS V14.00,2013-01-11 13:53:00,
2013-01-11 08:58:00,30.9,0.0,30.49,NW,312,0.0,0.0,0,0.00,,---,0.00,VWS V14.00,2013-01-11 13:58:00,
2013-01-11 09:03:00,31.1,0.0,30.49,NW,312,0.0,0.0,0,0.00,,---,0.00,VWS V14.00,2013-01-11 14:03:00,
2013-01-11 09:08:00,31.7,0.0,30.49,NW,312,0.0,0.0,0,0.00,,---,0.00,VWS V14.00,2013-01-11 14:08:00,
2013-01-11 09:13:00,32.3,0.0,30.49,NW,312,0.0,0.0,0,0.00,,---,0.00,VWS V14.00,2013-01-11 14:13:00,
2013-01-11 09:18:00,32.5,0.0,30.48,NW,318,0.0,6.3,0,0.00,,---,0.00,VWS V14.00,2013-01-11 14:18:00,
2013-01-11 09:23:00,33.3,0.0,30.48,NW,318,0.0,0.0,0,0.00,,---,0.00,VWS V14.00,2013-01-11 14:23:00,
2013-01-11 09:28:00,33.7,0.0,30.48,NW,318,0.0,0.0,0,0.00,,---,0.00,VWS V14.00,2013-01-11 14:28:00,
2013-01-11 09:33:00,34.2,0.0,30.48,NW,318,0.0,0.0,0,0.00,,---,0.00,VWS V14.00,2013-01-11 14:33:00,
2013-01-11 09:38:00,34.5,0.0,30.48,NW,318,0.0,0.0,0,0.00,,---,0.00,VWS V14.00,2013-01-11 14:38:00,
2013-01-11 09:43:00,34.6,0.0,30.48,NW,318,0.0,0.0,0,0.00,,---,0.00,VWS V14.00,2013-01-11 14:43:00,
2013-01-11 09:48:00,35.2,0.0,30.48,NW,318,0.0,0.0,0,0.00,,---,0.00,VWS V14.00,2013-01-11 14:48:00,
2013-01-11 09:53:00,35.7,0.0,30.47,NW,318,0.0,0.0,0,0.00,,---,0.00,VWS V14.00,2013-01-11 14:53:00,
2013-01-11 09:58:00,36.2,0.0,30.47,NW,318,0.0,0.0,0,0.00,,---,0.00,VWS V14.00,2013-01-11 14:58:00,
2013-01-11 10:03:00,36.2,0.0,30.47,North,10,0.0,7.3,0,0.00,,---,0.00,VWS V14.00,2013-01-11 15:03:00,
2013-01-11 10:08:00,36.6,0.0,30.47,North,10,0.0,0.0,0,0.00,,---,0.00,VWS V14.00,2013-01-11 15:08:00,
2013-01-11 10:13:00,37.1,0.0,30.47,NNE,32,0.0,7.4,0,0.00,,---,0.00,VWS V14.00,2013-01-11 15:13:00,
2013-01-11 10:18:00,38.0,0.0,30.47,North,359,4.8,6.0,0,0.00,,---,0.00,VWS V14.00,2013-01-11 15:18:00,
2013-01-11 10:23:00,38.3,0.0,30.47,NNE,13,0.0,6.0,0,0.00,,---,0.00,VWS V14.00,2013-01-11 15:23:00,
2013-01-11 10:28:00,38.4,0.0,30.47,NE,56,0.0,7.5,0,0.00,,---,0.00,VWS V14.00,2013-01-11 15:28:00,
2013-01-11 10:33:00,38.5,0.0,30.46,NE,34,5.8,7.5,0,0.00,,---,0.00,VWS V14.00,2013-01-11 15:33:00,
2013-01-11 10:38:00,38.5,0.0,30.46,NNE,28,6.8,7.9,0,0.00,,---,0.00,VWS V14.00,2013-01-11 15:38:00,
2013-01-11 10:43:00,39.1,0.0,30.46,NE,48,0.0,10.4,0,0.00,,---,0.00,VWS V14.00,2013-01-11 15:43:00,
2013-01-11 10:48:00,38.2,0.0,30.45,NNE,15,0.0,8.3,0,0.00,,---,0.00,VWS V14.00,2013-01-11 15:48:00,
2013-01-11 10:53:00,38.9,0.0,30.45,NNE,18,0.0,4.8,0,0.00,,---,0.00,VWS V14.00,2013-01-11 15:53:00,
2013-01-11 10:58:00,39.1,0.0,30.45,NE,34,5.8,8.8,0,0.00,,---,0.00,VWS V14.00,2013-01-11 15:58:00,
2013-01-11 11:03:00,40.5,0.0,30.44,NNE,32,6.4,8.8,0,0.00,,---,0.00,VWS V14.00,2013-01-11 16:03:00,
2013-01-11 11:08:00,41.2,0.0,30.44,North,359,0.0,9.4,0,0.00,,---,0.00,VWS V14.00,2013-01-11 16:08:00,
2013-01-11 11:13:00,40.1,0.0,30.43,NE,49,0.0,7.6,0,0.00,,---,0.00,VWS V14.00,2013-01-11 16:13:00,
2013-01-11 11:18:00,41.4,0.0,30.43,NE,49,0.0,10.1,0,0.00,,---,0.00,VWS V14.00,2013-01-11 16:18:00,
2013-01-11 11:23:00,39.7,0.0,30.43,NNE,24,0.0,0.0,0,0.00,,---,0.00,VWS V14.00,2013-01-11 16:23:00,
2013-01-11 11:28:00,39.4,0.0,30.42,ENE,63,0.0,9.6,0,0.00,,---,0.00,VWS V14.00,2013-01-11 16:28:00,
2013-01-11 11:33:00,39.4,0.0,30.42,ENE,63,0.0,9.1,0,0.00,,---,0.00,VWS V14.00,2013-01-11 16:33:00,
2013-01-11 11:38:00,39.5,0.0,30.42,NE,41,0.0,0.0,0,0.00,,---,0.00,VWS V14.00,2013-01-11 16:38:00,
2013-01-11 11:43:00,39.1,0.0,30.41,NNE,21,0.0,4.2,0,0.00,,---,0.00,VWS V14.00,2013-01-11 16:43:00,
2013-01-11 11:48:00,38.5,0.0,30.41,NE,49,0.0,7.4,0,0.00,,---,0.00,VWS V14.00,2013-01-11 16:48:00,
2013-01-11 11:53:00,38.7,0.0,30.41,NNE,18,0.0,7.6,0,0.00,,---,0.00,VWS V14.00,2013-01-11 16:53:00,
2013-01-11 11:58:00,38.5,0.0,30.41,NE,41,0.0,6.0,0,0.00,,---,0.00,VWS V14.00,2013-01-11 16:58:00,
2013-01-11 12:03:00,38.8,0.0,30.40,North,357,0.0,8.4,0,0.00,,---,0.00,VWS V14.00,2013-01-11 17:03:00,
2013-01-11 12:08:00,39.1,0.0,30.40,North,357,0.0,7.4,0,0.00,,---,0.00,VWS V14.00,2013-01-11 17:08:00,
2013-01-11 12:13:00,38.9,0.0,30.40,ENE,62,0.0,0.0,0,0.00,,---,0.00,VWS V14.00,2013-01-11 17:13:00,
2013-01-11 12:18:00,39.2,0.0,30.40,ENE,62,0.0,6.3,0,0.00,,---,0.00,VWS V14.00,2013-01-11 17:18:00,
2013-01-11 12:23:00,39.4,0.0,30.39,ENE,62,0.0,0.0,0,0.00,,---,0.00,VWS V14.00,2013-01-11 17:23:00,
2013-01-11 12:28:00,39.2,0.0,30.39,ENE,62,0.0,0.0,0,0.00,,---,0.00,VWS V14.00,2013-01-11 17:28:00,
2013-01-11 12:33:00,39.8,0.0,30.39,ENE,62,0.0,0.0,0,0.00,,---,0.00,VWS V14.00,2013-01-11 17:33:00,
2013-01-11 12:38:00,40.3,0.0,30.39,ENE,62,0.0,0.0,0,0.00,,---,0.00,VWS V14.00,2013-01-11 17:38:00,
2013-01-11 12:43:00,40.5,0.0,30.39,ENE,62,0.0,0.0,0,0.00,,---,0.00,VWS V14.00,2013-01-11 17:43:00,
2013-01-11 12:48:00,39.5,0.0,30.39,ESE,114,0.0,4.2,0,0.00,,---,0.00,VWS V14.00,2013-01-11 17:48:00,
2013-01-11 12:53:00,39.4,0.0,30.39,East,97,0.0,4.7,0,0.00,,---,0.00,VWS V14.00,2013-01-11 17:53:00,
2013-01-11 12:58:00,39.3,0.0,30.39,ENE,72,4.5,6.9,0,0.00,,---,0.00,VWS V14.00,2013-01-11 17:58:00,
2013-01-11 13:03:00,39.7,0.0,30.39,East,89,0.0,4.5,0,0.00,,---,0.00,VWS V14.00,2013-01-11 18:03:00,
2013-01-11 13:08:00,39.9,0.0,30.39,East,89,0.0,4.4,0,0.00,,---,0.00,VWS V14.00,2013-01-11 18:08:00,
2013-01-11 13:13:00,39.8,0.0,30.39,East,89,0.0,0.0,0,0.00,,---,0.00,VWS V14.00,2013-01-11 18:13:00,
2013-01-11 13:18:00,40.1,0.0,30.39,East,89,0.0,0.0,0,0.00,,---,0.00,VWS V14.00,2013-01-11 18:18:00,
2013-01-11 13:23:00,39.5,0.0,30.39,East,89,0.0,0.0,0,0.00,,---,0.00,VWS V14.00,2013-01-11 18:23:00,
2013-01-11 13:27:00,39.6,0.0,30.38,East,89,0.0,0.0,0,0.00,,---,0.00,VWS V14.00,2013-01-11 18:27:00,
2013-01-11 13:32:00,39.6,0.0,30.39,East,89,0.0,0.0,0,0.00,,---,0.00,VWS V14.00,2013-01-11 18:32:00,
2013-01-11 13:38:00,39.8,0.0,30.38,East,89,0.0,0.0,0,0.00,,---,0.00,VWS V14.00,2013-01-11 18:38:00,
2013-01-11 13:42:00,40.1,0.0,30.38,East,89,0.0,0.0,0,0.00,,---,0.00,VWS V14.00,2013-01-11 18:42:00,
2013-01-11 13:47:00,40.0,0.0,30.38,East,89,0.0,0.0,0,0.00,,---,0.00,VWS V14.00,2013-01-11 18:47:00,
2013-01-11 13:52:00,40.0,0.0,30.38,East,89,0.0,0.0,0,0.00,,---,0.00,VWS V14.00,2013-01-11 18:52:00,
2013-01-11 13:57:00,39.5,0.0,30.38,East,89,0.0,0.0,0,0.00,,---,0.00,VWS V14.00,2013-01-11 18:57:00,
2013-01-11 14:02:00,39.4,0.0,30.38,East,89,0.0,0.0,0,0.00,,---,0.00,VWS V14.00,2013-01-11 19:02:00,
2013-01-11 14:07:00,39.5,0.0,30.38,East,89,0.0,0.0,0,0.00,,---,0.00,VWS V14.00,2013-01-11 19:07:00,
2013-01-11 14:12:00,39.7,0.0,30.38,East,89,0.0,0.0,0,0.00,,---,0.00,VWS V14.00,2013-01-11 19:12:00,
2013-01-11 14:17:00,39.5,0.0,30.37,East,89,0.0,0.0,0,0.00,,---,0.00,VWS V14.00,2013-01-11 19:17:00,
2013-01-11 14:22:00,39.6,0.0,30.36,East,89,0.0,0.0,0,0.00,,---,0.00,VWS V14.00,2013-01-11 19:22:00,
2013-01-11 14:27:00,39.5,0.0,30.36,East,89,0.0,0.0,0,0.00,,---,0.00,VWS V14.00,2013-01-11 19:27:00,
2013-01-11 14:32:00,39.2,0.0,30.36,East,89,0.0,0.0,0,0.00,,---,0.00,VWS V14.00,2013-01-11 19:32:00,
2013-01-11 14:37:00,39.4,0.0,30.35,East,89,0.0,0.0,0,0.00,,---,0.00,VWS V14.00,2013-01-11 19:37:00,
2013-01-11 14:42:00,39.6,0.0,30.36,East,89,0.0,0.0,0,0.00,,---,0.00,VWS V14.00,2013-01-11 19:42:00,
2013-01-11 14:47:00,39.3,0.0,30.35,East,89,0.0,0.0,0,0.00,,---,0.00,VWS V14.00,2013-01-11 19:47:00,
2013-01-11 14:52:00,39.2,0.0,30.35,East,89,0.0,0.0,0,0.00,,---,0.00,VWS V14.00,2013-01-11 19:52:00,
2013-01-11 14:57:00,39.1,0.0,30.36,East,89,0.0,0.0,0,0.00,,---,0.00,VWS V14.00,2013-01-11 19:57:00,
2013-01-11 15:02:00,39.1,0.0,30.36,East,89,0.0,0.0,0,0.00,,---,0.00,VWS V14.00,2013-01-11 20:02:00,
2013-01-11 15:07:00,38.8,0.0,30.35,East,89,0.0,0.0,0,0.00,,---,0.00,VWS V14.00,2013-01-11 20:07:00,
2013-01-11 15:12:00,38.9,0.0,30.35,East,89,0.0,0.0,0,0.00,,---,0.00,VWS V14.00,2013-01-11 20:12:00,
2013-01-11 15:17:00,38.8,0.0,30.35,East,89,0.0,0.0,0,0.00,,---,0.00,VWS V14.00,2013-01-11 20:17:00,
2013-01-11 15:22:00,38.9,0.0,30.34,East,89,0.0,0.0,0,0.00,,---,0.00,VWS V14.00,2013-01-11 20:22:00,
2013-01-11 15:27:00,38.7,0.0,30.34,East,89,0.0,0.0,0,0.00,,---,0.00,VWS V14.00,2013-01-11 20:27:00,
2013-01-11 15:32:00,38.6,0.0,30.34,East,89,0.0,0.0,0,0.00,,---,0.00,VWS V14.00,2013-01-11 20:32:00,
2013-01-11 15:37:00,38.7,0.0,30.34,East,89,0.0,0.0,0,0.00,,---,0.00,VWS V14.00,2013-01-11 20:37:00,
2013-01-11 15:42:00,38.7,0.0,30.34,East,89,0.0,0.0,0,0.00,,---,0.00,VWS V14.00,2013-01-11 20:42:00,
2013-01-11 15:47:00,38.9,0.0,30.34,East,89,0.0,0.0,0,0.00,,---,0.00,VWS V14.00,2013-01-11 20:47:00,
2013-01-11 15:52:00,38.6,0.0,30.33,East,89,0.0,0.0,0,0.00,,---,0.00,VWS V14.00,2013-01-11 20:52:00,
2013-01-11 15:57:00,38.3,0.0,30.33,East,89,0.0,0.0,0,0.00,,---,0.00,VWS V14.00,2013-01-11 20:57:00,
2013-01-11 16:02:00,38.4,0.0,30.33,East,89,0.0,0.0,0,0.00,,---,0.00,VWS V14.00,2013-01-11 21:02:00,
2013-01-11 16:07:00,38.5,0.0,30.32,SSE,148,3.3,0.0,0,0.00,,---,0.00,VWS V14.00,2013-01-11 21:07:00,
2013-01-11 16:12:00,38.8,0.0,30.32,SSE,149,0.0,5.8,0,0.00,,---,0.00,VWS V14.00,2013-01-11 21:12:00,
2013-01-11 16:17:00,38.6,0.0,30.31,SSE,163,6.2,7.1,0,0.00,,---,0.00,VWS V14.00,2013-01-11 21:17:00,
2013-01-11 16:22:00,38.7,0.0,30.31,SE,128,5.3,8.0,0,0.00,,---,0.00,VWS V14.00,2013-01-11 21:22:00,
2013-01-11 16:27:00,38.7,0.0,30.31,South,184,2.8,8.7,0,0.00,,---,0.00,VWS V14.00,2013-01-11 21:27:00,
2013-01-11 16:32:00,38.8,0.0,30.30,SSE,153,5.5,9.1,0,0.00,,---,0.00,VWS V14.00,2013-01-11 21:32:00,
2013-01-11 16:37:00,38.8,0.0,30.30,SE,127,7.1,10.1,0,0.00,,---,0.00,VWS V14.00,2013-01-11 21:37:00,
2013-01-11 16:42:00,38.8,0.0,30.30,SSW,193,5.5,8.8,0,0.00,,---,0.00,VWS V14.00,2013-01-11 21:42:00,
2013-01-11 16:47:00,38.8,0.0,30.30,South,174,6.5,10.0,0,0.00,,---,0.00,VWS V14.00,2013-01-11 21:47:00,
2013-01-11 16:52:00,38.9,0.0,30.30,SSE,152,4.6,8.8,0,0.00,,---,0.00,VWS V14.00,2013-01-11 21:52:00,
2013-01-11 16:57:00,38.8,0.0,30.30,SSE,153,7.8,8.5,0,0.00,,---,0.00,VWS V14.00,2013-01-11 21:57:00,
2013-01-11 17:02:00,38.8,0.0,30.30,South,186,3.4,10.2,0,0.00,,---,0.00,VWS V14.00,2013-01-11 22:02:00,
2013-01-11 17:07:00,38.7,0.0,30.30,SSE,156,3.5,9.1,0,0.00,,---,0.00,VWS V14.00,2013-01-11 22:07:00,
2013-01-11 17:12:00,38.6,0.0,30.30,SSW,193,3.2,7.6,0,0.00,,---,0.00,VWS V14.00,2013-01-11 22:12:00,
2013-01-11 17:17:00,38.7,0.0,30.31,SE,143,0.0,7.6,0,0.00,,---,0.00,VWS V14.00,2013-01-11 22:17:00,
2013-01-11 17:22:00,38.7,0.0,30.31,South,190,0.0,8.3,0,0.00,,---,0.00,VWS V14.00,2013-01-11 22:22:00,
2013-01-11 17:27:00,38.5,0.0,30.31,South,190,0.0,3.4,0,0.00,,---,0.00,VWS V14.00,2013-01-11 22:27:00,
2013-01-11 17:32:00,38.2,0.0,30.30,South,190,0.0,0.0,0,0.00,,---,0.00,VWS V14.00,2013-01-11 22:32:00,
2013-01-11 17:37:00,38.2,0.0,30.30,South,190,0.0,0.0,0,0.00,,---,0.00,VWS V14.00,2013-01-11 22:37:00,
2013-01-11 17:42:00,38.2,0.0,30.30,South,190,0.0,0.0,0,0.00,,---,0.00,VWS V14.00,2013-01-11 22:42:00,
2013-01-11 17:47:00,38.5,0.0,30.30,South,190,0.0,0.0,0,0.00,,---,0.00,VWS V14.00,2013-01-11 22:47:00,
2013-01-11 17:52:00,38.4,0.0,30.30,South,190,0.0,0.0,0,0.00,,---,0.00,VWS V14.00,2013-01-11 22:52:00,
2013-01-11 17:57:00,38.4,0.0,30.30,South,190,0.0,0.0,0,0.00,,---,0.00,VWS V14.00,2013-01-11 22:57:00,
2013-01-11 18:02:00,38.4,0.0,30.29,South,190,0.0,0.0,0,0.00,,---,0.00,VWS V14.00,2013-01-11 23:02:00,
2013-01-11 18:07:00,38.5,0.0,30.29,South,190,0.0,0.0,0,0.00,,---,0.00,VWS V14.00,2013-01-11 23:07:00,
2013-01-11 18:12:00,38.5,0.0,30.29,South,190,0.0,0.0,0,0.00,,---,0.00,VWS V14.00,2013-01-11 23:12:00,
2013-01-11 18:17:00,38.5,0.0,30.29,South,190,0.0,0.0,0,0.00,,---,0.00,VWS V14.00,2013-01-11 23:17:00,
2013-01-11 18:22:00,38.3,0.0,30.29,South,190,0.0,0.0,0,0.00,,---,0.00,VWS V14.00,2013-01-11 23:22:00,
2013-01-11 18:27:00,38.2,0.0,30.29,South,190,0.0,0.0,0,0.00,,---,0.00,VWS V14.00,2013-01-11 23:27:00,
2013-01-11 18:32:00,38.1,0.0,30.28,South,190,0.0,0.0,0,0.00,,---,0.00,VWS V14.00,2013-01-11 23:32:00,
2013-01-11 18:37:00,38.1,0.0,30.28,South,190,0.0,0.0,0,0.00,,---,0.00,VWS V14.00,2013-01-11 23:37:00,
2013-01-11 18:42:00,38.0,0.0,30.28,South,190,0.0,0.0,0,0.00,,---,0.00,VWS V14.00,2013-01-11 23:42:00,
2013-01-11 18:47:00,38.2,0.0,30.28,South,190,0.0,0.0,0,0.00,,---,0.00,VWS V14.00,2013-01-11 23:47:00,
2013-01-11 18:52:00,38.0,0.0,30.28,South,190,0.0,0.0,0,0.00,,---,0.00,VWS V14.00,2013-01-11 23:52:00,
2013-01-11 18:57:00,38.2,0.0,30.27,South,190,0.0,0.0,0,0.00,,---,0.00,VWS V14.00,2013-01-11 23:57:00,
2013-01-11 19:02:00,38.7,0.0,30.27,South,173,6.2,0.0,0,0.00,,---,0.00,VWS V14.00,2013-01-12 00:02:00,
2013-01-11 19:07:00,38.6,0.0,30.27,South,174,3.2,6.6,0,0.00,,---,0.00,VWS V14.00,2013-01-12 00:07:00,
2013-01-11 19:12:00,38.9,0.0,30.27,South,176,5.2,7.0,0,0.00,,---,0.00,VWS V14.00,2013-01-12 00:12:00,
2013-01-11 19:17:00,39.0,0.0,30.26,South,174,6.0,6.8,0,0.01,,---,0.01,VWS V14.00,2013-01-12 00:17:00,
2013-01-11 19:22:00,39.1,0.0,30.26,SSE,166,7.0,8.1,0,0.01,,---,0.01,VWS V14.00,2013-01-12 00:22:00,
2013-01-11 19:27:00,39.2,0.0,30.26,SSE,159,7.1,8.3,0,0.01,,---,0.01,VWS V14.00,2013-01-12 00:27:00,
2013-01-11 19:32:00,39.2,0.0,30.26,SSW,193,0.0,7.8,0,0.01,,---,0.01,VWS V14.00,2013-01-12 00:32:00,
2013-01-11 19:37:00,38.9,0.0,30.26,SSW,205,0.0,8.5,0,0.01,,---,0.01,VWS V14.00,2013-01-12 00:37:00,
2013-01-11 19:42:00,39.2,0.0,30.26,South,188,4.5,6.6,0,0.01,,---,0.01,VWS V14.00,2013-01-12 00:42:00,
2013-01-11 19:47:00,39.0,0.0,30.26,South,173,3.1,8.1,0,0.01,,---,0.01,VWS V14.00,2013-01-12 00:47:00,
2013-01-11 19:52:00,39.0,0.0,30.27,SSE,162,0.0,7.5,0,0.01,,---,0.01,VWS V14.00,2013-01-12 00:52:00,
2013-01-11 19:57:00,38.9,0.0,30.26,SSE,162,0.0,8.1,0,0.01,,---,0.01,VWS V14.00,2013-01-12 00:57:00,
2013-01-11 20:02:00,39.0,0.0,30.26,SSE,165,8.1,0.0,0,0.01,,---,0.01,VWS V14.00,2013-01-12 01:02:00,
2013-01-11 20:07:00,39.2,0.0,30.26,South,188,5.3,9.8,0,0.01,,---,0.01,VWS V14.00,2013-01-12 01:07:00,
2013-01-11 20:12:00,39.2,0.0,30.26,SSE,166,8.0,10.5,0,0.02,,---,0.02,VWS V14.00,2013-01-12 01:12:00,
2013-01-11 20:17:00,39.1,0.0,30.26,SE,136,5.3,10.2,0,0.02,,---,0.02,VWS V14.00,2013-01-12 01:17:00,
2013-01-11 20:22:00,39.2,0.0,30.26,South,179,8.8,10.1,0,0.02,,---,0.02,VWS V14.00,2013-01-12 01:22:00,
2013-01-11 20:27:00,39.4,0.0,30.26,South,176,7.8,10.9,0,0.03,,---,0.03,VWS V14.00,2013-01-12 01:27:00,
2013-01-11 20:32:00,39.4,0.0,30.25,SSE,152,11.1,11.6,0,0.03,,---,0.03,VWS V14.00,2013-01-12 01:32:00,
2013-01-11 20:37:00,39.4,0.0,30.25,SSE,150,8.3,12.8,0,0.02,,---,0.03,VWS V14.00,2013-01-12 01:37:00,
2013-01-11 20:42:00,39.3,0.0,30.26,SSW,198,7.5,10.3,0,0.02,,---,0.03,VWS V14.00,2013-01-12 01:42:00,
2013-01-11 20:47:00,38.2,0.0,30.25,SSE,165,10.7,10.7,0,0.02,,---,0.03,VWS V14.00,2013-01-12 01:47:00,
2013-01-11 20:52:00,38.0,0.0,30.25,SSE,166,9.5,14.2,0,0.03,,---,0.04,VWS V14.00,2013-01-12 01:52:00,
2013-01-11 20:57:00,37.8,0.0,30.25,South,173,9.1,12.0,0,0.04,,---,0.05,VWS V14.00,2013-01-12 01:57:00,
2013-01-11 21:02:00,38.0,0.0,30.24,SE,145,9.1,12.8,0,0.04,,---,0.05,VWS V14.00,2013-01-12 02:02:00,
2013-01-11 21:07:00,37.9,0.0,30.24,SSE,167,7.9,13.2,0,0.04,,---,0.05,VWS V14.00,2013-01-12 02:07:00,
2013-01-11 21:12:00,38.0,0.0,30.24,SSE,158,6.5,13.5,0,0.04,,---,0.05,VWS V14.00,2013-01-12 02:12:00,
2013-01-11 21:17:00,37.9,0.0,30.24,SSE,166,7.0,11.8,0,0.03,,---,0.05,VWS V14.00,2013-01-12 02:17:00,
2013-01-11 21:22:00,38.1,0.0,30.24,ESE,112,6.8,12.4,0,0.03,,---,0.05,VWS V14.00,2013-01-12 02:22:00,
2013-01-11 21:27:00,38.1,0.0,30.24,SSE,153,10.4,12.4,0,0.03,,---,0.05,VWS V14.00,2013-01-12 02:27:00,
2013-01-11 21:32:00,38.1,0.0,30.24,SSE,148,10.6,12.4,0,0.03,,---,0.05,VWS V14.00,2013-01-12 02:32:00,
2013-01-11 21:37:00,38.2,0.0,30.24,SSE,148,9.4,13.2,0,0.02,,---,0.05,VWS V14.00,2013-01-12 02:37:00,
2013-01-11 21:42:00,38.1,0.0,30.24,SSE,152,10.1,12.4,0,0.02,,---,0.05,VWS V14.00,2013-01-12 02:42:00,
2013-01-11 21:47:00,38.1,0.0,30.24,SE,129,8.5,14.0,0,0.02,,---,0.05,VWS V14.00,2013-01-12 02:47:00,
2013-01-11 21:52:00,38.3,0.0,30.23,SSE,167,11.3,14.3,0,0.03,,---,0.06,VWS V14.00,2013-01-12 02:52:00,
2013-01-11 21:57:00,38.3,0.0,30.23,SSE,155,9.7,13.9,0,0.02,,---,0.06,VWS V14.00,2013-01-12 02:57:00,
2013-01-11 22:02:00,38.2,0.0,30.23,South,169,9.8,15.2,0,0.02,,---,0.06,VWS V14.00,2013-01-12 03:02:00,
2013-01-11 22:07:00,38.2,0.0,30.23,SSE,148,9.8,14.9,0,0.02,,---,0.06,VWS V14.00,2013-01-12 03:07:00,
2013-01-11 22:12:00,38.1,0.0,30.23,SSE,159,13.2,16.1,0,0.02,,---,0.06,VWS V14.00,2013-01-12 03:12:00,
2013-01-11 22:17:00,38.2,0.0,30.23,SSE,163,7.9,14.5,0,0.01,,---,0.06,VWS V14.00,2013-01-12 03:17:00,
2013-01-11 22:22:00,38.2,0.0,30.23,SSE,166,10.6,14.1,0,0.02,,---,0.07,VWS V14.00,2013-01-12 03:22:00,
2013-01-11 22:27:00,38.3,0.0,30.23,South,173,10.8,13.7,0,0.02,,---,0.07,VWS V14.00,2013-01-12 03:27:00,
2013-01-11 22:32:00,38.3,0.0,30.22,South,176,8.7,15.4,0,0.02,,---,0.07,VWS V14.00,2013-01-12 03:32:00,
2013-01-11 22:37:00,38.4,0.0,30.22,SE,142,10.3,14.5,0,0.02,,---,0.07,VWS V14.00,2013-01-12 03:37:00,
2013-01-11 22:42:00,38.4,0.0,30.22,SSE,160,7.1,16.3,0,0.02,,---,0.07,VWS V14.00,2013-01-12 03:42:00,
2013-01-11 22:47:00,38.4,0.0,30.22,SSE,152,11.9,14.8,0,0.02,,---,0.07,VWS V14.00,2013-01-12 03:47:00,
2013-01-11 22:52:00,38.5,0.0,30.22,SSE,158,11.4,16.2,0,0.03,,---,0.08,VWS V14.00,2013-01-12 03:52:00,
2013-01-11 22:57:00,38.5,0.0,30.22,SE,141,11.2,17.0,0,0.02,,---,0.08,VWS V14.00,2013-01-12 03:57:00,
2013-01-11 23:02:00,38.5,0.0,30.23,SSE,166,12.0,14.6,0,0.02,,---,0.08,VWS V14.00,2013-01-12 04:02:00,
2013-01-11 23:07:00,38.3,0.0,30.23,SSE,148,12.3,15.3,0,0.02,,---,0.08,VWS V14.00,2013-01-12 04:07:00,
2013-01-11 23:12:00,38.5,0.0,30.23,SSE,165,10.4,17.3,0,0.02,,---,0.08,VWS V14.00,2013-01-12 04:12:00,
2013-01-11 23:17:00,38.6,0.0,30.23,SSE,163,7.7,15.5,0,0.03,,---,0.09,VWS V14.00,2013-01-12 04:17:00,
2013-01-11 23:22:00,38.3,0.0,30.23,South,181,12.7,13.8,0,0.03,,---,0.09,VWS V14.00,2013-01-12 04:22:00,
2013-01-11 23:27:00,38.5,0.0,30.23,SSW,195,7.5,12.7,0,0.04,,---,0.10,VWS V14.00,2013-01-12 04:27:00,
2013-01-11 23:32:00,38.3,0.0,30.23,South,191,6.5,11.6,0,0.04,,---,0.10,VWS V14.00,2013-01-12 04:32:00,
2013-01-11 23:37:00,38.3,0.0,30.23,SSE,165,8.3,11.8,0,0.03,,---,0.10,VWS V14.00,2013-01-12 04:37:00,
2013-01-11 23:42:00,38.4,0.0,30.22,SSE,156,10.2,11.5,0,0.04,,---,0.11,VWS V14.00,2013-01-12 04:42:00,
2013-01-11 23:47:00,38.3,0.0,30.22,South,170,11.1,13.1,0,0.04,,---,0.11,VWS V14.00,2013-01-12 04:47:00,
2013-01-11 23:52:00,38.3,0.0,30.22,South,180,8.5,13.7,0,0.04,,---,0.11,VWS V14.00,2013-01-12 04:52:00,